Regional Weather Roundup
Issued by NWS

Home | Current Version | Previous Version | Graphics & Text | Print | Product List | Glossary On
Versions: 1 2 3 4 5 6 7 8 9 10 11 12 13 14 15 16 17 18 19 20 21 22 23 24 25 26 27 28 29 30 31 32 33 34 35 36 37 38 39 40 41 42 43 44 45 46 47 48 49 50
933
ASUS43 KBIS 251602
RWRND

NORTH DAKOTA REGIONAL WEATHER ROUNDUP
NATIONAL WEATHER SERVICE BISMARCK ND
1100 AM CDT SAT MAR 25 2017

NOTE: "FAIR" INDICATES FEW OR NO CLOUDS BELOW 12,000 FEET WITH NO
SIGNIFICANT WEATHER AND/OR OBSTRUCTIONS TO VISIBILITY.


NDZ001>003-009>011-017-251700-
NORTHWEST NORTH DAKOTA

CITY           SKY/WX    TMP DP  RH WIND       PRES   REMARKS
WILLISTON      FAIR      48  35  60 S5        29.87R
MINOT          CLOUDY    36  31  82 SE14      29.92S
MINOT AFB      LGT RAIN  35  31  87 S15       29.91S
$$

NDZ018>021-031>035-040>046-251700-
SOUTHWEST NORTH DAKOTA

CITY           SKY/WX    TMP DP  RH WIND       PRES   REMARKS
BISMARCK       CLOUDY    34  33  96 S13       30.05S
DICKINSON      CLOUDY    41  31  67 S17       29.91R
GARRISON         N/A     34  31  88 S18G25    29.96S
HETTINGER ARPT CLOUDY    40  32  73 SE12      29.96R
$$

NDZ004>008-012>016-024-026-027-054-251700-
NORTHEAST NORTH DAKOTA

CITY           SKY/WX    TMP DP  RH WIND       PRES   REMARKS
GRAND FORKS    PTSUNNY   38  34  85 S16G23    30.15S
GRND FRKS AFB  MOSUNNY   38  34  84 S18G26    30.14S
DEVILS LAKE    CLOUDY    34  31  88 S15       30.08S
$$

NDZ022-023-025-028>030-036>039-047>053-251700-
SOUTHEAST NORTH DAKOTA

CITY           SKY/WX    TMP DP  RH WIND       PRES   REMARKS
FARGO          CLOUDY    36  31  82 S15G21    30.18S
JAMESTOWN      CLOUDY    32  30  92 S18G25    30.10R
$$





USA.gov is the U.S. government's official web portal to all federal, state and local government web resources and services.